This is the latest recevied weather packets stored in our database for station/object K5MGY. If no packets are shown the sender has not sent any weather packets the latest 10 day(s).
| Time | Temp. | Humidity | Pressure | Rain* | Wind** | Luminosity | Snow |
|---|---|---|---|---|---|---|---|
| 1788444926 | 27.22° C | 79% | 1038 hPa | 0 mm | - | 77 W/m² | - |
| 1788444621 | 27.22° C | 79% | 1037.9 hPa | 0 mm | - | 71 W/m² | - |
| 1788444317 | 27.22° C | 79% | 1038 hPa | 0 mm | - | 68 W/m² | - |
| 1788444012 | 27.22° C | 79% | 1037.9 hPa | 0 mm | - | 77 W/m² | - |
| 1788443708 | 27.22° C | 79% | 1037.8 hPa | 0 mm | - | 74 W/m² | - |
| 1788443408 | 26.67° C | 79% | 1038 hPa | 0 mm | - | 86 W/m² | - |
| 1788443107 | 26.67° C | 79% | 1037.9 hPa | 0 mm | - | 82 W/m² | - |
| 1788442803 | 26.11° C | 81% | 1037.8 hPa | 0 mm | - | 71 W/m² | - |
| 1788442500 | 26.11° C | 82% | 1037.6 hPa | 0 mm | - | 56 W/m² | - |
| 1788442195 | 25.56° C | 82% | 1037.6 hPa | 0 mm | - | 49 W/m² | - |
| 1788441891 | 25.56° C | 83% | 1037.6 hPa | 0 mm | - | 42 W/m² | - |
| 1788441590 | 25.56° C | 83% | 1037.7 hPa | 0 mm | - | 32 W/m² | - |
| 1788441286 | 25.56° C | 83% | 1037.5 hPa | 0 mm | - | 27 W/m² | - |
| 1788440984 | 25.56° C | 83% | 1037.9 hPa | 0 mm | - | 22 W/m² | - |
| 1788440680 | 25.56° C | 84% | 1037.9 hPa | 0 mm | - | 18 W/m² | - |
| 1788440379 | 25° C | 84% | 1037.8 hPa | 0 mm | - | 14 W/m² | - |
| 1788440079 | 25° C | 84% | 1037.6 hPa | 0 mm | - | 11 W/m² | - |
| 1788439778 | 25° C | 85% | 1037.6 hPa | 0 mm | - | 9 W/m² | - |
| 1788439474 | 25° C | 85% | 1037.7 hPa | 0 mm | - | 8 W/m² | - |
| 1788439173 | 25° C | 85% | 1037.6 hPa | 0 mm | - | 6 W/m² | - |
| 1788438868 | 25° C | 85% | 1037.5 hPa | 0 mm | - | 5 W/m² | - |
| 1788438567 | 25° C | 85% | 1037.6 hPa | 0 mm | - | 4 W/m² | - |
| 1788438267 | 25° C | 85% | 1037.4 hPa | 0 mm | - | 4 W/m² | - |
| 1788437965 | 25° C | 84% | 1037.5 hPa | 0 mm | - | 3 W/m² | - |
| 1788437661 | 25° C | 84% | 1037.5 hPa | 0 mm | - | 2 W/m² | - |
* Rain latest hour (hover to see other rain measurements)
** Current wind speed in m/s (hover to see current wind gust speed)